| time (UTC) | temp C | wind direction | speed KPH | gust KPH | rain 1hr cm | rain 24hr cm | rain mn cm | humidity % | barometer mb |
| 20260507184552 | 15 | 232 | 1.6 | 8.0 | 0.00 | 0.23 | 0.20 | 77 | 1014.7 |
| 20260507183052 | 15 | 227 | 0.0 | 8.0 | 0.00 | 0.23 | 0.20 | 76 | 1014.5 |
| 20260507181550 | 16 | 184 | 1.6 | 8.0 | 0.00 | 0.23 | 0.20 | 75 | 1014.4 |
| 20260507180057 | 16 | 225 | 0.0 | 11.3 | 0.00 | 0.23 | 0.20 | 73 | 1014.4 |
| 20260507174603 | 16 | 279 | 3.2 | 8.0 | 0.00 | 0.23 | 0.20 | 73 | 1014.3 |
| 20260507173050 | 17 | 173 | 0.0 | 11.3 | 0.00 | 0.23 | 0.20 | 71 | 1014.1 |
| 20260507171652 | 17 | 209 | 1.6 | 12.9 | 0.00 | 0.23 | 0.20 | 69 | 1014.1 |
| 20260507170048 | 17 | 5 | 3.2 | 16.1 | 0.00 | 0.23 | 0.20 | 68 | 1013.6 |
| 20260507164550 | 18 | 175 | 4.8 | 12.9 | 0.00 | 0.23 | 0.20 | 66 | 1013.5 |
| 20260507163050 | 19 | 234 | 1.6 | 12.9 | 0.00 | 0.23 | 0.20 | 64 | 1013.4 |
| 20260507161547 | 19 | 207 | 8.0 | 19.3 | 0.00 | 0.23 | 0.20 | 63 | 1013.4 |
| 20260507160052 | 20 | 221 | 3.2 | 17.7 | 0.00 | 0.23 | 0.20 | 63 | 1013.3 |
| 20260507154545 | 20 | 246 | 6.4 | 20.9 | 0.00 | 0.23 | 0.20 | 60 | 1013.2 |
| 20260507153046 | 21 | 251 | 8.0 | 20.9 | 0.00 | 0.23 | 0.20 | 57 | 1012.7 |
| 20260507151547 | 21 | 205 | 6.4 | 22.5 | 0.00 | 0.23 | 0.20 | 55 | 1012.7 |
| 20260507150043 | 21 | 292 | 6.4 | 14.5 | 0.00 | 0.23 | 0.20 | 55 | 1012.5 |
| 20260507144542 | 21 | 213 | 3.2 | 17.7 | 0.00 | 0.23 | 0.20 | 53 | 1012.5 |
| 20260507143048 | 22 | 260 | 4.8 | 17.7 | 0.00 | 0.23 | 0.20 | 51 | 1012.6 |
| 20260507141545 | 22 | 219 | 3.2 | 16.1 | 0.00 | 0.23 | 0.20 | 49 | 1012.4 |
| 20260507140043 | 22 | 312 | 8.0 | 17.7 | 0.00 | 0.23 | 0.20 | 49 | 1012.3 |
| 20260507134540 | 22 | 221 | 4.8 | 17.7 | 0.00 | 0.23 | 0.20 | 51 | 1012.4 |
| 20260507133039 | 22 | 253 | 6.4 | 14.5 | 0.00 | 0.23 | 0.20 | 50 | 1012.6 |
| 20260507131538 | 22 | 217 | 4.8 | 16.1 | 0.00 | 0.23 | 0.20 | 47 | 1012.7 |
| 20260507130044 | 22 | 183 | 4.8 | 14.5 | 0.00 | 0.23 | 0.20 | 50 | 1012.8 |
| 20260507124551 | 22 | 216 | 1.6 | 16.1 | 0.00 | 0.23 | 0.20 | 49 | 1012.9 |
| 20260507123035 | 22 | 213 | 4.8 | 11.3 | 0.00 | 0.23 | 0.20 | 49 | 1012.9 |
| 20260507121536 | 21 | 270 | 4.8 | 14.5 | 0.00 | 0.23 | 0.20 | 52 | 1013.1 |
| 20260507120032 | 20 | 296 | 0.0 | 3.2 | 0.00 | 0.25 | 0.20 | 55 | 1013.2 |
| 20260507114531 | 21 | 208 | 1.6 | 9.7 | 0.00 | 0.25 | 0.20 | 50 | 1013.2 |
| 20260507113030 | 22 | 220 | 6.4 | 14.5 | 0.00 | 0.25 | 0.20 | 56 | 1013.4 |
| 20260507111527 | 21 | 198 | 3.2 | 12.9 | 0.00 | 0.25 | 0.20 | 55 | 1013.7 |
| 20260507110029 | 20 | 207 | 4.8 | 14.5 | 0.00 | 0.28 | 0.20 | 59 | 1014.0 |
| 20260507104525 | 20 | 132 | 1.6 | 9.7 | 0.00 | 0.28 | 0.20 | 59 | 1013.9 |
| 20260507103022 | 20 | 109 | 1.6 | 9.7 | 0.00 | 0.28 | 0.20 | 60 | 1014.1 |
| 20260507101519 | 19 | 144 | 4.8 | 9.7 | 0.00 | 0.28 | 0.20 | 63 | 1014.1 |
| 20260507100023 | 19 | 248 | 3.2 | 11.3 | 0.00 | 0.30 | 0.20 | 67 | 1014.2 |
| 20260507094517 | 18 | 96 | 3.2 | 8.0 | 0.00 | 0.30 | 0.20 | 69 | 1014.2 |
| 20260507093024 | 20 | 199 | 1.6 | 9.7 | 0.00 | 0.30 | 0.20 | 71 | 1014.3 |
| 20260507091521 | 18 | 130 | 3.2 | 9.7 | 0.00 | 0.30 | 0.20 | 72 | 1014.3 |
| 20260507090011 | 18 | 128 | 4.8 | 9.7 | 0.00 | 0.33 | 0.20 | 74 | 1014.3 |
| 20260507084515 | 17 | 84 | 1.6 | 8.0 | 0.00 | 0.33 | 0.20 | 76 | 1014.4 |
| 20260507083009 | 17 | 63 | 3.2 | 8.0 | 0.00 | 0.33 | 0.20 | 77 | 1014.3 |
| 20260507081506 | 17 | 122 | 1.6 | 6.4 | 0.03 | 0.33 | 0.20 | 80 | 1014.3 |
| 20260507080103 | 16 | 180 | 3.2 | 6.4 | 0.03 | 0.33 | 0.20 | 81 | 1014.3 |
| 20260507074615 | 16 | 107 | 0.0 | 8.0 | 0.03 | 0.33 | 0.20 | 84 | 1014.3 |
| 20260507073058 | 15 | 80 | 1.6 | 8.0 | 0.03 | 0.33 | 0.20 | 86 | 1014.3 |
| 20260507071556 | 14 | 221 | 0.0 | 0.0 | 0.00 | 0.33 | 0.18 | 91 | 1014.3 |
| 20260507070106 | 13 | 128 | 0.0 | 0.0 | 0.00 | 0.33 | 0.18 | 92 | 1014.2 |
| 20260507064559 | 13 | 128 | 0.0 | 0.0 | 0.00 | 0.33 | 0.18 | 94 | 1014.2 |
| 20260507063057 | 12 | 128 | 0.0 | 0.0 | 0.00 | 0.33 | 0.18 | 96 | 1014.2 |
| 20260507061551 | 12 | 53 | 0.0 | 3.2 | 0.00 | 0.33 | 0.18 | 96 | 1014.1 |
| 20260507060049 | 11 | 343 | 0.0 | 6.4 | 0.00 | 0.33 | 0.18 | 97 | 1013.9 |
| 20260507054553 | 11 | 177 | 0.0 | 0.0 | 0.00 | 0.33 | 0.18 | 97 | 1014.0 |
| 20260507053048 | 11 | 177 | 0.0 | 0.0 | 0.00 | 0.33 | 0.18 | 97 | 1013.7 |
| 20260507051547 | 10 | 177 | 0.0 | 0.0 | 0.00 | 0.33 | 0.18 | 97 | 1013.7 |
| 20260507050046 | 10 | 177 | 0.0 | 0.0 | 0.00 | 0.33 | 0.18 | 97 | 1013.4 |
| 20260507044545 | 10 | 177 | 0.0 | 0.0 | 0.00 | 0.33 | 0.18 | 96 | 1013.4 |
| 20260507043044 | 10 | 177 | 0.0 | 0.0 | 0.00 | 0.33 | 0.18 | 97 | 1013.1 |
| 20260507041544 | 10 | 177 | 0.0 | 0.0 | 0.00 | 0.33 | 0.18 | 96 | 1012.9 |
| 20260507040041 | 10 | 173 | 0.0 | 0.0 | 0.00 | 0.33 | 0.18 | 96 | 1012.9 |
| 20260507034542 | 10 | 173 | 0.0 | 0.0 | 0.00 | 0.33 | 0.18 | 96 | 1012.8 |
| 20260507033044 | 10 | 173 | 0.0 | 0.0 | 0.00 | 0.33 | 0.18 | 96 | 1012.9 |
| 20260507031539 | 10 | 173 | 0.0 | 0.0 | 0.00 | 0.33 | 0.18 | 96 | 1012.7 |
| 20260507030041 | 10 | 291 | 0.0 | 0.0 | 0.00 | 0.33 | 0.18 | 95 | 1012.8 |
| 20260507024538 | 10 | 251 | 0.0 | 0.0 | 0.00 | 0.33 | 0.18 | 95 | 1012.7 |
| 20260507023035 | 10 | 251 | 0.0 | 0.0 | 0.00 | 0.33 | 0.18 | 95 | 1012.6 |
| 20260507021534 | 10 | 251 | 0.0 | 0.0 | 0.00 | 0.33 | 0.18 | 95 | 1012.6 |
| 20260507020041 | 11 | 251 | 0.0 | 0.0 | 0.00 | 0.33 | 0.18 | 95 | 1012.6 |
| 20260507014532 | 11 | 251 | 0.0 | 1.6 | 0.00 | 0.33 | 0.18 | 95 | 1012.7 |
| 20260507013046 | 11 | 251 | 0.0 | 3.2 | 0.00 | 0.33 | 0.18 | 95 | 1012.7 |
| 20260507011531 | 11 | 250 | 0.0 | 0.0 | 0.00 | 0.33 | 0.18 | 94 | 1012.6 |
| 20260507010035 | 11 | 250 | 0.0 | 0.0 | 0.00 | 0.33 | 0.18 | 94 | 1012.6 |
| 20260507004528 | 11 | 250 | 0.0 | 8.0 | 0.00 | 0.33 | 0.18 | 94 | 1012.7 |
| 20260507003028 | 11 | 299 | 0.0 | 3.2 | 0.00 | 0.33 | 0.18 | 94 | 1012.7 |
| 20260507001530 | 11 | 300 | 0.0 | 6.4 | 0.00 | 0.33 | 0.18 | 94 | 1012.7 |
| 20260507000026 | 11 | 309 | 1.6 | 8.0 | 0.00 | 0.33 | 0.18 | 94 | 1012.8 |
| 20260506234531 | 11 | 246 | 1.6 | 8.0 | 0.10 | 0.33 | 0.18 | 94 | 1012.8 |
| 20260506233023 | 11 | 196 | 0.0 | 3.2 | 0.15 | 0.33 | 0.18 | 94 | 1013.0 |
| 20260506231526 | 12 | 355 | 0.0 | 1.6 | 0.18 | 0.33 | 0.18 | 93 | 1012.8 |
| 20260506230021 | 12 | 360 | 0.0 | 6.4 | 0.18 | 0.33 | 0.18 | 92 | 1012.9 |
| 20260506224517 | 12 | 355 | 0.0 | 3.2 | 0.08 | 0.23 | 0.08 | 91 | 1013.3 |
| 20260506223012 | 12 | 298 | 1.6 | 9.7 | 0.03 | 0.15 | 0.03 | 87 | 1013.0 |
| 20260506221510 | 13 | 265 | 4.8 | 14.5 | 0.00 | 0.15 | 0.00 | 86 | 1012.9 |
| 20260506220015 | 13 | 239 | 4.8 | 9.7 | 0.00 | 0.15 | 0.15 | 86 | 1012.7 |
| 20260506214509 | 13 | 209 | 0.0 | 8.0 | 0.00 | 0.15 | 0.15 | 87 | 1012.6 |
| 20260506213006 | 13 | 223 | 0.0 | 9.7 | 0.03 | 0.15 | 0.15 | 87 | 1012.6 |
| 20260506211508 | 13 | 196 | 0.0 | 9.7 | 0.03 | 0.15 | 0.15 | 90 | 1012.7 |
| 20260506210011 | 13 | 194 | 0.0 | 3.2 | 0.03 | 0.15 | 0.15 | 90 | 1012.7 |
| 20260506204506 | 13 | 184 | 0.0 | 6.4 | 0.03 | 0.15 | 0.15 | 86 | 1012.4 |
| 20260506203005 | 14 | 257 | 0.0 | 6.4 | 0.00 | 0.13 | 0.13 | 85 | 1012.3 |
| 20260506201505 | 14 | 130 | 4.8 | 14.5 | 0.00 | 0.13 | 0.13 | 89 | 1012.2 |
| 20260506200007 | 14 | 242 | 0.0 | 6.4 | 0.00 | 0.13 | 0.13 | 90 | 1012.2 |
| 20260506194503 | 14 | 315 | 0.0 | 0.0 | 0.00 | 0.13 | 0.13 | 91 | 1011.9 |
| 20260506193003 | 14 | 309 | 0.0 | 0.0 | 0.00 | 0.13 | 0.13 | 90 | 1011.8 |
| 20260506191502 | 14 | 309 | 0.0 | 3.2 | 0.00 | 0.13 | 0.13 | 89 | 1011.6 |
| 20260506190001 | 15 | 302 | 1.6 | 9.7 | 0.00 | 0.13 | 0.13 | 88 | 1011.6 |